MOLNIYA 3-47

Last updated on Sept. 19, 2020, 5:46 a.m. UTC

1 23642U 95042A   20262.00299458  .00000291  00000-0  00000+0 0  9997
2 23642  63.2846 145.8083 6812905 287.8783  12.7666  2.01925200184238
UTC
Height (km)
Latitude
Longitude
Inclination
Orbital Period
UTC large
Height (km)
Speed (km/s)
/
Latitude / Longitude
Inclination (degrees)
Orbital Period (minutes)
Azimuth
Elevation
Range (km)
Doppler Factor
iOS Compass Heading
iOS Angle

Next 30 passes for location: Hong Kong

Rise time Rise Azimuth (degrees) Set time Set Azimuth (degrees) Duration Max altitude (degrees)

No matching passes for this satellites